| time (UTC) | temp C | wind direction | speed KPH | gust KPH | rain 1hr cm | rain 24hr cm | rain mn cm | humidity % | barometer mb |
| 20260504003507 | 15 | 5 | 1.6 | 9.7 | 0.00 | 0.00 | 0.00 | 46 | 1014.0 |
| 20260504003014 | 15 | 5 | 1.6 | 17.7 | 0.00 | 0.00 | 0.00 | 44 | 1013.9 |
| 20260504002504 | 16 | 5 | 1.6 | 17.7 | 0.00 | 0.00 | 0.00 | 44 | 1013.8 |
| 20260504002010 | 16 | 5 | 6.4 | 17.7 | 0.00 | 0.00 | 0.00 | 44 | 1013.9 |
| 20260504001521 | 16 | 5 | 3.2 | 16.1 | 0.00 | 0.00 | 0.00 | 45 | 1013.9 |
| 20260504001007 | 16 | 5 | 4.8 | 16.1 | 0.00 | 0.00 | 0.00 | 45 | 1014.0 |
| 20260504000507 | 16 | 5 | 3.2 | 12.9 | 0.00 | 0.00 | 0.00 | 43 | 1013.9 |
| 20260504000037 | 16 | 5 | 4.8 | 12.9 | 0.00 | 0.00 | 0.00 | 42 | 1013.8 |
| 20260503235509 | 16 | 5 | 6.4 | 14.5 | 0.00 | 0.00 | 0.00 | 43 | 1013.9 |
| 20260503235007 | 16 | 5 | 6.4 | 19.3 | 0.00 | 0.00 | 0.00 | 42 | 1014.0 |
| 20260503234521 | 16 | 5 | 3.2 | 24.1 | 0.00 | 0.00 | 0.00 | 42 | 1014.0 |
| 20260503234004 | 16 | 5 | 4.8 | 24.1 | 0.00 | 0.00 | 0.00 | 41 | 1013.9 |
| 20260503233504 | 17 | 5 | 4.8 | 14.5 | 0.00 | 0.00 | 0.00 | 41 | 1014.0 |
| 20260503233010 | 17 | 5 | 4.8 | 19.3 | 0.00 | 0.00 | 0.00 | 41 | 1013.8 |
| 20260503232505 | 17 | 5 | 6.4 | 20.9 | 0.00 | 0.00 | 0.00 | 40 | 1014.0 |
| 20260503232004 | 17 | 5 | 8.0 | 20.9 | 0.00 | 0.00 | 0.00 | 39 | 1014.0 |
| 20260503231516 | 17 | 5 | 3.2 | 16.1 | 0.00 | 0.00 | 0.00 | 39 | 1013.9 |
| 20260503231005 | 17 | 5 | 4.8 | 20.9 | 0.00 | 0.00 | 0.00 | 40 | 1013.9 |
| 20260503230506 | 17 | 5 | 6.4 | 20.9 | 0.00 | 0.00 | 0.00 | 39 | 1014.0 |
| 20260503230022 | 17 | 5 | 6.4 | 20.9 | 0.00 | 0.00 | 0.00 | 38 | 1014.1 |
| 20260503225511 | 17 | 5 | 4.8 | 17.7 | 0.00 | 0.00 | 0.00 | 39 | 1014.3 |
| 20260503225010 | 17 | 5 | 8.0 | 17.7 | 0.00 | 0.00 | 0.00 | 38 | 1014.3 |
| 20260503224528 | 17 | 5 | 8.0 | 14.5 | 0.00 | 0.00 | 0.00 | 38 | 1014.5 |
| 20260503224011 | 17 | 5 | 3.2 | 25.7 | 0.00 | 0.00 | 0.00 | 37 | 1014.6 |
| 20260503223507 | 17 | 5 | 4.8 | 25.7 | 0.00 | 0.00 | 0.00 | 37 | 1014.7 |
| 20260503223023 | 17 | 5 | 4.8 | 17.7 | 0.00 | 0.00 | 0.00 | 36 | 1014.9 |
| 20260503222504 | 17 | 5 | 4.8 | 20.9 | 0.00 | 0.00 | 0.00 | 38 | 1014.9 |
| 20260503222004 | 17 | 5 | 6.4 | 20.9 | 0.00 | 0.00 | 0.00 | 37 | 1015.0 |
| 20260503221515 | 17 | 5 | 6.4 | 16.1 | 0.00 | 0.00 | 0.00 | 36 | 1015.0 |
| 20260503221007 | 17 | 5 | 6.4 | 20.9 | 0.00 | 0.00 | 0.00 | 35 | 1015.0 |
| 20260503220508 | 17 | 5 | 6.4 | 20.9 | 0.00 | 0.00 | 0.00 | 35 | 1014.9 |
| 20260503220021 | 17 | 5 | 8.0 | 24.1 | 0.00 | 0.00 | 0.00 | 34 | 1015.0 |
| 20260503215507 | 18 | 5 | 9.7 | 24.1 | 0.00 | 0.00 | 0.00 | 34 | 1015.4 |
| 20260503215008 | 18 | 5 | 12.9 | 25.7 | 0.00 | 0.00 | 0.00 | 34 | 1015.4 |
| 20260503214530 | 18 | 5 | 6.4 | 25.7 | 0.00 | 0.00 | 0.00 | 36 | 1015.5 |
| 20260503214007 | 18 | 5 | 9.7 | 22.5 | 0.00 | 0.00 | 0.00 | 35 | 1015.5 |
| 20260503213513 | 18 | 5 | 8.0 | 16.1 | 0.00 | 0.00 | 0.00 | 35 | 1015.6 |
| 20260503213028 | 18 | 5 | 4.8 | 19.3 | 0.00 | 0.00 | 0.00 | 36 | 1015.7 |
| 20260503212517 | 18 | 5 | 8.0 | 22.5 | 0.00 | 0.00 | 0.00 | 34 | 1015.8 |
| 20260503212011 | 18 | 5 | 6.4 | 22.5 | 0.00 | 0.00 | 0.00 | 36 | 1015.9 |
| 20260503211524 | 18 | 5 | 9.7 | 20.9 | 0.00 | 0.00 | 0.00 | 35 | 1015.6 |
| 20260503211010 | 18 | 5 | 6.4 | 20.9 | 0.00 | 0.00 | 0.00 | 37 | 1015.6 |
| 20260503210503 | 18 | 5 | 8.0 | 22.5 | 0.00 | 0.00 | 0.00 | 35 | 1015.5 |
| 20260503210011 | 18 | 5 | 9.7 | 22.5 | 0.00 | 0.00 | 0.00 | 33 | 1015.6 |
| 20260503205503 | 18 | 5 | 8.0 | 20.9 | 0.00 | 0.00 | 0.00 | 35 | 1015.7 |
| 20260503205003 | 18 | 5 | 6.4 | 20.9 | 0.00 | 0.00 | 0.00 | 35 | 1015.9 |
| 20260503204508 | 17 | 5 | 6.4 | 25.7 | 0.00 | 0.00 | 0.00 | 35 | 1016.1 |
| 20260503204003 | 17 | 5 | 8.0 | 25.7 | 0.00 | 0.00 | 0.00 | 34 | 1016.1 |
| 20260503203502 | 18 | 5 | 8.0 | 24.1 | 0.00 | 0.00 | 0.00 | 34 | 1016.1 |
| 20260503203004 | 18 | 5 | 4.8 | 24.1 | 0.00 | 0.00 | 0.00 | 34 | 1016.2 |
| 20260503202504 | 18 | 5 | 6.4 | 24.1 | 0.00 | 0.00 | 0.00 | 35 | 1016.3 |
| 20260503202004 | 17 | 5 | 9.7 | 24.1 | 0.00 | 0.00 | 0.00 | 36 | 1016.4 |
| 20260503201508 | 18 | 5 | 9.7 | 20.9 | 0.00 | 0.00 | 0.00 | 33 | 1016.4 |
| 20260503201004 | 18 | 5 | 8.0 | 17.7 | 0.00 | 0.00 | 0.00 | 34 | 1016.5 |
| 20260503200501 | 18 | 5 | 3.2 | 16.1 | 0.00 | 0.00 | 0.00 | 33 | 1016.6 |
| 20260503200003 | 18 | 5 | 3.2 | 16.1 | 0.00 | 0.00 | 0.00 | 34 | 1016.6 |
| 20260503195502 | 18 | 5 | 4.8 | 20.9 | 0.00 | 0.00 | 0.00 | 35 | 1016.8 |
| 20260503195002 | 18 | 5 | 6.4 | 20.9 | 0.00 | 0.00 | 0.00 | 31 | 1017.0 |
| 20260503194503 | 18 | 5 | 11.3 | 20.9 | 0.00 | 0.00 | 0.00 | 34 | 1017.2 |
| 20260503194003 | 18 | 5 | 11.3 | 20.9 | 0.00 | 0.00 | 0.00 | 34 | 1017.3 |
| 20260503193504 | 18 | 5 | 3.2 | 16.1 | 0.00 | 0.00 | 0.00 | 38 | 1017.5 |
| 20260503193004 | 18 | 5 | 6.4 | 16.1 | 0.00 | 0.00 | 0.00 | 37 | 1017.6 |
| 20260503192504 | 18 | 5 | 8.0 | 16.1 | 0.00 | 0.00 | 0.00 | 34 | 1017.7 |
| 20260503192005 | 18 | 5 | 4.8 | 17.7 | 0.00 | 0.00 | 0.00 | 36 | 1017.7 |
| 20260503191506 | 17 | 5 | 6.4 | 17.7 | 0.00 | 0.00 | 0.00 | 36 | 1017.8 |
| 20260503191003 | 17 | 5 | 4.8 | 14.5 | 0.00 | 0.00 | 0.00 | 36 | 1017.8 |
| 20260503190506 | 17 | 5 | 6.4 | 19.3 | 0.00 | 0.00 | 0.00 | 38 | 1017.9 |
| 20260503190012 | 17 | 5 | 4.8 | 20.9 | 0.00 | 0.00 | 0.00 | 32 | 1018.0 |
| 20260503185504 | 17 | 5 | 6.4 | 24.1 | 0.00 | 0.00 | 0.00 | 34 | 1018.2 |
| 20260503185004 | 17 | 5 | 14.5 | 24.1 | 0.00 | 0.00 | 0.00 | 33 | 1018.1 |
| 20260503184506 | 17 | 5 | 9.7 | 16.1 | 0.00 | 0.00 | 0.00 | 36 | 1018.2 |
| 20260503184011 | 16 | 5 | 6.4 | 24.1 | 0.00 | 0.00 | 0.00 | 35 | 1018.3 |
| 20260503183502 | 17 | 5 | 4.8 | 24.1 | 0.00 | 0.00 | 0.00 | 35 | 1018.5 |
| 20260503183004 | 17 | 5 | 9.7 | 29.0 | 0.00 | 0.00 | 0.00 | 40 | 1018.7 |
| 20260503182503 | 17 | 5 | 9.7 | 29.0 | 0.00 | 0.00 | 0.00 | 36 | 1018.7 |
| 20260503182004 | 16 | 5 | 8.0 | 20.9 | 0.00 | 0.00 | 0.00 | 41 | 1018.7 |
| 20260503181505 | 16 | 5 | 6.4 | 20.9 | 0.00 | 0.00 | 0.00 | 36 | 1018.7 |
| 20260503181004 | 16 | 5 | 6.4 | 20.9 | 0.00 | 0.00 | 0.00 | 36 | 1018.7 |
| 20260503180504 | 16 | 5 | 1.6 | 17.7 | 0.00 | 0.00 | 0.00 | 36 | 1018.8 |
| 20260503180009 | 16 | 5 | 3.2 | 22.5 | 0.00 | 0.00 | 0.00 | 34 | 1018.9 |
| 20260503175503 | 16 | 5 | 11.3 | 22.5 | 0.00 | 0.00 | 0.00 | 33 | 1018.9 |
| 20260503175003 | 17 | 5 | 4.8 | 22.5 | 0.00 | 0.00 | 0.00 | 37 | 1019.0 |
| 20260503174513 | 16 | 5 | 11.3 | 22.5 | 0.00 | 0.00 | 0.00 | 39 | 1019.1 |
| 20260503174010 | 16 | 5 | 4.8 | 16.1 | 0.00 | 0.00 | 0.00 | 39 | 1019.2 |
| 20260503173505 | 16 | 5 | 3.2 | 20.9 | 0.00 | 0.00 | 0.00 | 36 | 1019.2 |
| 20260503173003 | 16 | 5 | 6.4 | 20.9 | 0.00 | 0.00 | 0.00 | 37 | 1019.3 |
| 20260503172502 | 16 | 5 | 4.8 | 16.1 | 0.00 | 0.00 | 0.00 | 41 | 1019.4 |
| 20260503172005 | 16 | 5 | 4.8 | 17.7 | 0.00 | 0.00 | 0.00 | 34 | 1019.4 |
| 20260503171505 | 16 | 5 | 3.2 | 17.7 | 0.00 | 0.00 | 0.00 | 42 | 1019.5 |
| 20260503171007 | 16 | 5 | 9.7 | 17.7 | 0.00 | 0.00 | 0.00 | 35 | 1019.7 |
| 20260503170508 | 16 | 5 | 6.4 | 17.7 | 0.00 | 0.00 | 0.00 | 38 | 1019.7 |
| 20260503151008 | 12 | 5 | 3.2 | 12.9 | 0.00 | 0.00 | 0.00 | 45 | 1021.1 |
| 20260503150507 | 12 | 5 | 3.2 | 16.1 | 0.00 | 0.00 | 0.00 | 45 | 1021.0 |
| 20260503131004 | 7 | 5 | 3.2 | 9.7 | 0.00 | 0.00 | 0.00 | 65 | 1021.1 |
| 20260503130506 | 7 | 5 | 3.2 | 9.7 | 0.00 | 0.00 | 0.00 | 66 | 1021.0 |
| 20260503110506 | 1 | 5 | 0.0 | 0.0 | 0.00 | 0.00 | 0.00 | 89 | 1020.3 |
| 20260503090508 | 1 | 5 | 0.0 | 0.0 | 0.00 | 0.00 | 0.00 | 88 | 1019.9 |
| 20260503081535 | 1 | 5 | 0.0 | 0.0 | 0.00 | 0.00 | 0.00 | 87 | 1019.8 |
| 20260503081007 | 1 | 5 | 0.0 | 0.0 | 0.00 | 0.00 | 0.00 | 87 | 1019.8 |
| 20260503080510 | 1 | 5 | 0.0 | 0.0 | 0.00 | 0.00 | 0.00 | 87 | 1019.8 |
| 20260503072508 | 2 | 5 | 0.0 | 0.0 | 0.00 | 0.00 | 0.00 | 85 | 1019.6 |
| 20260503072002 | 2 | 5 | 0.0 | 0.0 | 0.00 | 0.00 | 0.00 | 85 | 1019.5 |
| 20260503071503 | 2 | 5 | 0.0 | 0.0 | 0.00 | 0.00 | 0.00 | 85 | 1019.5 |
| 20260503071003 | 2 | 5 | 0.0 | 0.0 | 0.00 | 0.00 | 0.00 | 84 | 1019.5 |
| 20260503070504 | 2 | 5 | 0.0 | 0.0 | 0.00 | 0.00 | 0.00 | 84 | 1019.6 |
| 20260503055003 | 3 | 5 | 0.0 | 0.0 | 0.00 | 0.00 | 0.00 | 79 | 1019.9 |
| 20260503054514 | 3 | 5 | 0.0 | 0.0 | 0.00 | 0.00 | 0.00 | 79 | 1019.9 |
| 20260503054002 | 3 | 5 | 0.0 | 0.0 | 0.00 | 0.00 | 0.00 | 78 | 1019.8 |
| 20260503053502 | 3 | 5 | 0.0 | 0.0 | 0.00 | 0.00 | 0.00 | 78 | 1019.8 |
| 20260503053006 | 3 | 5 | 0.0 | 0.0 | 0.00 | 0.00 | 0.00 | 77 | 1019.8 |
| 20260503052509 | 3 | 5 | 0.0 | 0.0 | 0.00 | 0.00 | 0.00 | 78 | 1019.7 |
| 20260503052006 | 3 | 5 | 0.0 | 0.0 | 0.00 | 0.00 | 0.00 | 77 | 1019.8 |
| 20260503051508 | 3 | 5 | 0.0 | 0.0 | 0.00 | 0.00 | 0.00 | 78 | 1019.7 |
| 20260503051006 | 4 | 5 | 0.0 | 0.0 | 0.00 | 0.00 | 0.00 | 76 | 1019.7 |
| 20260503050507 | 4 | 5 | 0.0 | 1.6 | 0.00 | 0.00 | 0.00 | 77 | 1019.8 |
| 20260503050016 | 4 | 5 | 0.0 | 1.6 | 0.00 | 0.00 | 0.00 | 77 | 1019.8 |
| 20260503045506 | 4 | 5 | 0.0 | 0.0 | 0.00 | 0.00 | 0.00 | 76 | 1019.8 |
| 20260503045010 | 4 | 5 | 0.0 | 0.0 | 0.00 | 0.00 | 0.00 | 75 | 1019.7 |
| 20260503044536 | 5 | 5 | 0.0 | 0.0 | 0.00 | 0.00 | 0.00 | 75 | 1019.7 |
| 20260503044002 | 5 | 5 | 0.0 | 0.0 | 0.00 | 0.00 | 0.00 | 75 | 1019.7 |
| 20260503043502 | 5 | 5 | 0.0 | 0.0 | 0.00 | 0.00 | 0.00 | 74 | 1019.8 |
| 20260503043007 | 5 | 5 | 0.0 | 0.0 | 0.00 | 0.00 | 0.00 | 74 | 1019.8 |
| 20260503042502 | 5 | 5 | 0.0 | 0.0 | 0.00 | 0.00 | 0.00 | 72 | 1019.8 |
| 20260503042006 | 5 | 5 | 0.0 | 0.0 | 0.00 | 0.00 | 0.00 | 72 | 1019.7 |
| 20260503041552 | 5 | 5 | 0.0 | 0.0 | 0.00 | 0.00 | 0.00 | 72 | 1019.6 |
| 20260503041005 | 5 | 5 | 0.0 | 0.0 | 0.00 | 0.00 | 0.00 | 72 | 1019.6 |
| 20260503040509 | 5 | 5 | 0.0 | 0.0 | 0.00 | 0.00 | 0.00 | 72 | 1019.7 |
| 20260503040014 | 6 | 5 | 0.0 | 0.0 | 0.00 | 0.00 | 0.00 | 69 | 1019.8 |
| 20260503035506 | 6 | 5 | 0.0 | 0.0 | 0.00 | 0.00 | 0.00 | 70 | 1019.7 |
| 20260503035014 | 6 | 5 | 0.0 | 0.0 | 0.00 | 0.00 | 0.00 | 68 | 1019.7 |
| 20260503034521 | 6 | 5 | 0.0 | 0.0 | 0.00 | 0.00 | 0.00 | 68 | 1019.7 |
| 20260503034007 | 6 | 5 | 0.0 | 0.0 | 0.00 | 0.00 | 0.00 | 68 | 1019.7 |
| 20260503033508 | 6 | 5 | 0.0 | 0.0 | 0.00 | 0.00 | 0.00 | 69 | 1019.6 |
| 20260503033022 | 7 | 5 | 0.0 | 0.0 | 0.00 | 0.00 | 0.00 | 68 | 1019.6 |
| 20260503032502 | 7 | 5 | 0.0 | 0.0 | 0.00 | 0.00 | 0.00 | 67 | 1019.5 |
| 20260503032002 | 7 | 5 | 0.0 | 0.0 | 0.00 | 0.00 | 0.00 | 67 | 1019.5 |
| 20260503031512 | 7 | 5 | 0.0 | 0.0 | 0.00 | 0.00 | 0.00 | 66 | 1019.5 |
| 20260503031003 | 7 | 5 | 0.0 | 0.0 | 0.00 | 0.00 | 0.00 | 63 | 1019.6 |
| 20260503030504 | 7 | 5 | 0.0 | 1.6 | 0.00 | 0.00 | 0.00 | 63 | 1019.5 |
| 20260503030014 | 7 | 5 | 0.0 | 1.6 | 0.00 | 0.00 | 0.00 | 64 | 1019.5 |
| 20260503025503 | 8 | 5 | 0.0 | 3.2 | 0.00 | 0.00 | 0.00 | 64 | 1019.5 |
| 20260503025006 | 8 | 5 | 0.0 | 3.2 | 0.00 | 0.00 | 0.00 | 62 | 1019.4 |
| 20260503024514 | 8 | 5 | 0.0 | 1.6 | 0.00 | 0.00 | 0.00 | 61 | 1019.3 |
| 20260503024006 | 8 | 5 | 0.0 | 1.6 | 0.00 | 0.00 | 0.00 | 59 | 1019.4 |
| 20260503023510 | 8 | 5 | 0.0 | 1.6 | 0.00 | 0.00 | 0.00 | 59 | 1019.3 |
| 20260503023024 | 8 | 5 | 0.0 | 1.6 | 0.00 | 0.00 | 0.00 | 60 | 1019.3 |
| 20260503022506 | 8 | 5 | 0.0 | 1.6 | 0.00 | 0.00 | 0.00 | 61 | 1019.2 |
| 20260503022015 | 8 | 5 | 0.0 | 1.6 | 0.00 | 0.00 | 0.00 | 60 | 1019.2 |
| 20260503021524 | 8 | 5 | 0.0 | 1.6 | 0.00 | 0.00 | 0.00 | 61 | 1019.1 |
| 20260503021010 | 8 | 5 | 0.0 | 1.6 | 0.00 | 0.00 | 0.00 | 63 | 1018.9 |
| 20260503020506 | 8 | 5 | 0.0 | 1.6 | 0.00 | 0.00 | 0.00 | 65 | 1018.8 |
| 20260503020006 | 8 | 5 | 0.0 | 1.6 | 0.00 | 0.00 | 0.00 | 62 | 1018.8 |
| 20260503015502 | 8 | 5 | 0.0 | 1.6 | 0.00 | 0.00 | 0.00 | 66 | 1018.8 |
| 20260503015005 | 8 | 5 | 0.0 | 0.0 | 0.00 | 0.00 | 0.00 | 70 | 1018.7 |
| 20260503014511 | 8 | 5 | 0.0 | 0.0 | 0.00 | 0.00 | 0.00 | 67 | 1018.6 |
| 20260503014006 | 8 | 5 | 0.0 | 0.0 | 0.00 | 0.00 | 0.00 | 67 | 1018.6 |
| 20260503013515 | 8 | 5 | 0.0 | 0.0 | 0.00 | 0.00 | 0.00 | 68 | 1018.5 |
| 20260503013025 | 8 | 5 | 0.0 | 0.0 | 0.00 | 0.00 | 0.00 | 67 | 1018.4 |
| 20260503012507 | 9 | 5 | 0.0 | 0.0 | 0.00 | 0.00 | 0.00 | 66 | 1018.3 |
| 20260503012016 | 9 | 5 | 0.0 | 0.0 | 0.00 | 0.00 | 0.00 | 66 | 1018.2 |
| 20260503011524 | 9 | 5 | 0.0 | 0.0 | 0.00 | 0.00 | 0.00 | 63 | 1018.2 |
| 20260503011008 | 10 | 5 | 0.0 | 0.0 | 0.00 | 0.00 | 0.00 | 64 | 1018.1 |
| 20260503010509 | 10 | 5 | 0.0 | 0.0 | 0.00 | 0.00 | 0.00 | 63 | 1018.0 |
| 20260503010024 | 10 | 5 | 0.0 | 1.6 | 0.00 | 0.00 | 0.00 | 63 | 1017.9 |
| 20260503005509 | 10 | 5 | 0.0 | 3.2 | 0.00 | 0.00 | 0.00 | 61 | 1017.9 |
| 20260503005010 | 10 | 5 | 0.0 | 3.2 | 0.00 | 0.00 | 0.00 | 61 | 1017.8 |
| 20260503004512 | 10 | 5 | 0.0 | 3.2 | 0.00 | 0.00 | 0.00 | 59 | 1017.8 |
| 20260503004005 | 11 | 5 | 0.0 | 3.2 | 0.00 | 0.00 | 0.00 | 58 | 1017.7 |